DW1824 Weather Reports


Display with metric or nautical units.
time (UTC)temp
F
wind
direction
speed
MPH
gust
MPH
rain 1hr
in
rain 24hr
in
rain mn
in
humidity
%
barometer
mb
20260831051326 79 158 0.0 0.0 0.00 0.00 0.00 82 1015.8
20260831050329 80 158 0.0 0.0 0.00 0.00 0.00 82 1015.7
20260831045334 80 145 0.0 1.0 0.00 0.00 0.00 82 1015.8
20260831044325 80 145 0.0 2.0 0.00 0.00 0.00 81 1015.7
20260831043328 80 135 2.0 3.0 0.00 0.00 0.00 81 1015.7
20260831042353 81 137 1.0 3.0 0.00 0.00 0.00 80 1015.6
20260831041357 81 116 1.0 2.0 0.00 0.00 0.00 79 1015.5
20260831040340 81 150 1.0 2.0 0.00 0.00 0.00 78 1015.3
20260831035326 81 136 1.0 2.0 0.00 0.00 0.00 78 1015.2
20260831034351 82 148 1.0 4.0 0.00 0.00 0.00 77 1015.2
20260831033333 82 151 1.0 3.0 0.00 0.00 0.00 76 1015.1
20260831032338 82 139 1.0 2.0 0.00 0.00 0.00 76 1015.1
20260831031326 83 145 2.0 3.0 0.00 0.00 0.00 75 1015.0
20260831030330 83 149 1.0 3.0 0.00 0.00 0.00 74 1015.0
20260831025336 83 137 2.0 5.0 0.00 0.00 0.00 73 1014.9
20260831024339 84 153 2.0 3.0 0.00 0.00 0.00 73 1014.7
20260831023325 84 137 2.0 5.0 0.00 0.00 0.00 73 1014.4
20260831022351 84 145 2.0 4.0 0.00 0.00 0.00 72 1014.2
20260831021335 85 134 3.0 4.0 0.00 0.00 0.00 71 1014.1
20260831020329 85 145 2.0 4.0 0.00 0.00 0.00 70 1014.0
20260831015354 86 139 2.0 4.0 0.00 0.00 0.00 70 1014.0
20260831014342 86 141 2.0 3.0 0.00 0.00 0.00 70 1013.8
20260831013327 87 149 2.0 4.0 0.00 0.00 0.00 68 1013.7
20260831012334 87 145 1.0 3.0 0.00 0.00 0.00 68 1013.6
20260831011339 88 140 2.0 3.0 0.00 0.00 0.00 66 1013.7
20260831010343 88 142 2.0 5.0 0.00 0.00 0.00 65 1013.7
20260831005348 88 152 2.0 3.0 0.00 0.00 0.00 65 1013.5
20260831004332 89 143 1.0 3.0 0.00 0.00 0.00 63 1013.4
20260831003335 89 142 1.0 4.0 0.00 0.00 0.00 62 1013.4
20260831002324 90 168 2.0 4.0 0.00 0.00 0.00 61 1013.3
20260831001330 91 141 2.0 5.0 0.00 0.00 0.00 60 1013.4
20260831000335 91 135 4.0 8.0 0.00 0.00 0.00 57 1013.2
20260830235343 92 178 1.0 4.0 0.00 0.00 0.00 55 1013.2
20260830234326 92 150 3.0 7.0 0.00 0.00 0.00 53 1013.2
20260830233328 92 134 2.0 4.0 0.00 0.00 0.00 51 1013.2
20260830232335 93 168 1.0 4.0 0.00 0.00 0.00 50 1013.3
20260830231345 94 135 2.0 4.0 0.00 0.00 0.00 46 1013.2
20260830230328 94 133 2.0 8.0 0.00 0.00 0.00 44 1013.2
20260830225333 95 122 4.0 11.0 0.00 0.00 0.00 42 1013.1
20260830224339 95 131 4.0 8.0 0.00 0.00 0.00 45 1013.1
20260830223400 95 122 3.0 10.0 0.00 0.00 0.00 43 1013.2
20260830222324 96 126 6.0 9.0 0.00 0.00 0.00 45 1013.1
20260830221349 96 108 3.0 9.0 0.00 0.00 0.00 44 1013.2
20260830220329 96 137 4.0 8.0 0.00 0.00 0.00 42 1013.2
20260830215333 96 109 1.0 4.0 0.00 0.00 0.00 45 1013.2
20260830214323 96 102 4.0 8.0 0.00 0.00 0.00 45 1013.3
20260830213327 94 126 0.0 2.0 0.00 0.00 0.00 48 1013.4
20260830212333 94 136 1.0 4.0 0.00 0.00 0.00 48 1013.7
20260830211338 95 30 1.0 4.0 0.00 0.00 0.00 46 1013.7
20260830210342 95 124 1.0 4.0 0.00 0.00 0.00 50 1013.9
20260830205328 96 103 2.0 8.0 0.00 0.00 0.00 49 1014.0
20260830204337 95 61 1.0 3.0 0.00 0.00 0.00 49 1014.0
20260830203341 94 112 3.0 6.0 0.00 0.00 0.00 52 1014.3
20260830202327 94 114 1.0 5.0 0.00 0.00 0.00 52 1014.4
20260830201332 94 97 0.0 5.0 0.00 0.00 0.00 51 1014.6
20260830200334 93 124 0.0 3.0 0.00 0.00 0.00 54 1014.8
20260830195339 94 143 1.0 4.0 0.00 0.00 0.00 52 1014.9
20260830194324 95 116 2.0 6.0 0.00 0.00 0.00 51 1015.1
20260830193332 94 29 2.0 6.0 0.00 0.00 0.00 54 1015.3
20260830192338 94 54 0.0 3.0 0.00 0.00 0.00 54 1015.5
20260830191342 95 91 1.0 5.0 0.00 0.00 0.00 53 1015.7
20260830190327 95 244 0.0 6.0 0.00 0.00 0.00 52 1015.8
20260830185351 95 133 2.0 5.0 0.00 0.00 0.00 51 1015.9
20260830184335 94 14 1.0 4.0 0.00 0.00 0.00 53 1015.9
20260830183358 94 145 3.0 7.0 0.00 0.00 0.00 53 1016.2
20260830182343 93 79 0.0 3.0 0.00 0.00 0.00 55 1016.4
20260830181332 93 302 2.0 4.0 0.00 0.00 0.00 55 1016.6
20260830180337 92 213 1.0 3.0 0.00 0.00 0.00 56 1016.7
20260830175342 91 209 0.0 3.0 0.00 0.00 0.00 58 1016.8
20260830174329 92 153 0.0 4.0 0.00 0.00 0.00 59 1017.0
20260830173333 91 220 1.0 5.0 0.00 0.00 0.00 59 1017.1
20260830172340 91 172 1.0 3.0 0.00 0.00 0.00 61 1017.2
20260830171330 91 266 2.0 4.0 0.00 0.00 0.00 60 1017.2
20260830170335 92 189 1.0 2.0 0.00 0.00 0.00 60 1017.3
20260830165339 91 244 1.0 5.0 0.00 0.00 0.00 61 1017.5
20260830164327 91 172 1.0 4.0 0.00 0.00 0.00 59 1017.6
20260830163332 90 131 1.0 4.0 0.00 0.00 0.00 64 1017.6
20260830162337 89 189 1.0 5.0 0.00 0.00 0.00 66 1017.6
20260830161341 88 193 0.0 0.0 0.00 0.00 0.00 68 1017.7
20260830160404 87 263 0.0 0.0 0.00 0.00 0.00 70 1017.7
20260830155333 87 175 0.0 0.0 0.00 0.00 0.00 76 1017.8
20260830154339 86 148 0.0 0.0 0.00 0.00 0.00 74 1017.8
20260830153324 86 232 0.0 0.0 0.00 0.00 0.00 77 1017.8
20260830152351 85 226 0.0 0.0 0.00 0.00 0.00 77 1017.7
20260830151355 85 159 0.0 0.0 0.00 0.00 0.00 79 1017.5
20260830150338 84 106 0.0 0.0 0.00 0.00 0.00 82 1017.5
20260830145342 83 135 0.0 0.0 0.00 0.00 0.00 85 1017.6
20260830144332 83 163 0.0 0.0 0.00 0.00 0.00 86 1017.7
20260830143337 82 278 0.0 0.0 0.00 0.00 0.00 89 1017.8
20260830142342 81 278 0.0 0.0 0.00 0.00 0.00 89 1017.7
20260830141330 81 360 0.0 0.0 0.00 0.00 0.00 91 1017.6
20260830140353 80 360 0.0 0.0 0.00 0.00 0.00 92 1017.6
20260830135336 79 124 0.0 0.0 0.00 0.00 0.00 94 1017.6
20260830134341 79 124 0.0 0.0 0.00 0.00 0.00 94 1017.6
20260830133343 78 124 0.0 0.0 0.00 0.00 0.00 95 1017.5
20260830132333 77 124 0.0 0.0 0.00 0.00 0.00 95 1017.5
20260830131359 76 124 0.0 0.0 0.00 0.00 0.00 94 1017.5
20260830130402 76 124 0.0 0.0 0.00 0.00 0.00 94 1017.3
20260830125327 75 124 0.0 0.0 0.00 0.00 0.00 94 1017.1
20260830124333 75 124 0.0 0.0 0.00 0.00 0.00 94 1017.1
20260830123337 75 124 0.0 0.0 0.00 0.00 0.00 94 1017.0
20260830122341 75 124 0.0 0.0 0.00 0.00 0.00 94 1016.9
20260830121327 75 124 0.0 0.0 0.00 0.00 0.00 94 1016.8
20260830120334 75 123 0.0 0.0 0.00 0.00 0.00 94 1016.7
20260830115338 74 123 0.0 0.0 0.00 0.00 0.00 93 1016.6
20260830114324 74 123 0.0 0.0 0.00 0.00 0.00 93 1016.5
20260830113327 74 124 0.0 0.0 0.00 0.00 0.00 93 1016.4
20260830112332 74 123 0.0 0.0 0.00 0.00 0.00 93 1016.3
20260830111357 74 123 0.0 0.0 0.00 0.00 0.00 93 1016.4
20260830110340 75 123 0.0 0.0 0.00 0.00 0.00 93 1016.4
20260830105326 75 124 0.0 0.0 0.00 0.00 0.00 93 1016.4
20260830104335 75 123 0.0 0.0 0.00 0.00 0.00 93 1016.2
20260830103359 75 124 0.0 0.0 0.00 0.00 0.00 94 1016.1
20260830102324 75 124 0.0 0.0 0.00 0.00 0.00 94 1016.1
20260830101329 75 124 0.0 0.0 0.00 0.00 0.00 93 1016.1
20260830100351 75 123 0.0 0.0 0.00 0.00 0.00 93 1016.0
20260830095355 75 123 0.0 0.0 0.00 0.00 0.00 93 1016.0
20260830094340 75 123 0.0 0.0 0.00 0.00 0.00 92 1016.0
20260830093342 75 124 0.0 0.0 0.00 0.00 0.00 91 1016.1
20260830092332 75 124 0.0 0.0 0.00 0.00 0.00 92 1015.9
20260830091337 75 123 0.0 0.0 0.00 0.00 0.00 92 1016.0
20260830090341 75 123 0.0 0.0 0.00 0.00 0.00 92 1016.0
20260830085326 76 123 0.0 0.0 0.00 0.00 0.00 92 1016.0
20260830084332 76 123 0.0 0.0 0.00 0.00 0.00 92 1016.1
20260830083334 76 124 0.0 0.0 0.00 0.00 0.00 92 1016.1
20260830082338 76 124 0.0 0.0 0.00 0.00 0.00 91 1016.1
20260830081327 76 123 0.0 0.0 0.00 0.00 0.00 90 1016.2
20260830080348 76 123 0.0 0.0 0.00 0.00 0.00 91 1016.3
20260830075332 76 123 0.0 0.0 0.00 0.00 0.00 90 1016.3
20260830074358 77 124 0.0 0.0 0.00 0.00 0.00 91 1016.3
20260830073339 77 124 0.0 0.0 0.00 0.00 0.00 91 1016.4
20260830072326 77 124 0.0 0.0 0.00 0.00 0.00 90 1016.5
20260830071332 77 124 0.0 0.0 0.00 0.00 0.00 90 1016.5
20260830070334 77 190 0.0 0.0 0.00 0.00 0.00 89 1016.3
20260830065339 78 190 0.0 0.0 0.00 0.00 0.00 89 1016.4
20260830064328 78 175 0.0 0.0 0.00 0.00 0.00 89 1016.4
20260830063332 78 179 0.0 0.0 0.00 0.00 0.00 89 1016.4
20260830062338 78 172 0.0 0.0 0.00 0.00 0.00 89 1016.3
20260830061343 78 170 0.0 0.0 0.00 0.00 0.00 89 1016.3
20260830060328 78 149 0.0 0.0 0.00 0.00 0.00 88 1016.3
20260830055333 78 149 0.0 0.0 0.00 0.00 0.00 88 1016.3
20260830054343 79 160 0.0 0.0 0.00 0.00 0.00 88 1016.3
20260830053325 79 142 0.0 0.0 0.00 0.00 0.00 87 1016.3